| time (UTC) | temp F | wind direction | speed MPH | gust MPH | rain 1hr in | rain 24hr in | rain mn in | humidity % | barometer mb |
| 20260906062003 | 53 | 166 | 0.0 | 3.0 | 0.00 | 0.00 | 0.00 | 100 | 1026.0 |
| 20260906061003 | 51 | 166 | 0.0 | 2.0 | 0.00 | 0.00 | 0.00 | 99 | 1026.1 |
| 20260906060003 | 49 | 166 | 0.0 | 1.0 | 0.00 | 0.00 | 0.00 | 99 | 1026.1 |
| 20260906055003 | 49 | 166 | 0.0 | 2.0 | 0.00 | 0.00 | 0.00 | 99 | 1026.0 |
| 20260906053003 | 47 | 0 | 0.0 | 0.0 | 0.00 | 0.00 | 0.00 | 98 | 1025.9 |
| 20260906052002 | 47 | 0 | 0.0 | 0.0 | 0.00 | 0.00 | 0.00 | 98 | 1025.9 |
| 20260906051003 | 46 | 0 | 0.0 | 0.0 | 0.00 | 0.00 | 0.00 | 98 | 1025.9 |
| 20260906050003 | 46 | 0 | 0.0 | 0.0 | 0.00 | 0.00 | 0.00 | 98 | 1025.9 |
| 20260906045002 | 46 | 0 | 0.0 | 0.0 | 0.00 | 0.00 | 0.00 | 98 | 1026.0 |
| 20260906044002 | 46 | 0 | 0.0 | 0.0 | 0.00 | 0.00 | 0.00 | 98 | 1026.0 |
| 20260906043004 | 46 | 0 | 0.0 | 0.0 | 0.00 | 0.00 | 0.00 | 97 | 1026.0 |
| 20260906042002 | 47 | 0 | 0.0 | 0.0 | 0.00 | 0.00 | 0.00 | 97 | 1026.1 |
| 20260906041003 | 48 | 0 | 0.0 | 0.0 | 0.00 | 0.00 | 0.00 | 98 | 1026.5 |
| 20260906040003 | 48 | 0 | 0.0 | 0.0 | 0.00 | 0.00 | 0.00 | 98 | 1026.5 |
| 20260906035003 | 48 | 0 | 0.0 | 0.0 | 0.00 | 0.00 | 0.00 | 98 | 1026.5 |
| 20260906034002 | 48 | 0 | 0.0 | 0.0 | 0.00 | 0.00 | 0.00 | 98 | 1026.4 |
| 20260906032004 | 48 | 0 | 0.0 | 0.0 | 0.00 | 0.00 | 0.00 | 98 | 1026.1 |
| 20260906031003 | 48 | 167 | 1.0 | 2.0 | 0.00 | 0.00 | 0.00 | 98 | 1026.3 |
| 20260906030003 | 47 | 166 | 0.0 | 2.0 | 0.00 | 0.00 | 0.00 | 97 | 1026.3 |
| 20260906025003 | 48 | 167 | 1.0 | 2.0 | 0.00 | 0.00 | 0.00 | 97 | 1026.4 |
| 20260906024003 | 48 | 166 | 1.0 | 2.0 | 0.00 | 0.00 | 0.00 | 97 | 1026.7 |
| 20260906022003 | 49 | 166 | 0.0 | 1.0 | 0.00 | 0.00 | 0.00 | 97 | 1026.9 |
| 20260906021003 | 49 | 166 | 0.0 | 2.0 | 0.00 | 0.00 | 0.00 | 97 | 1026.9 |
| 20260906020003 | 49 | 163 | 2.0 | 4.0 | 0.00 | 0.00 | 0.00 | 97 | 1026.9 |
| 20260906015004 | 49 | 160 | 2.0 | 3.0 | 0.00 | 0.00 | 0.00 | 97 | 1026.7 |
| 20260906014003 | 49 | 160 | 1.0 | 2.0 | 0.00 | 0.00 | 0.00 | 97 | 1026.5 |
| 20260906013004 | 49 | 0 | 0.0 | 0.0 | 0.00 | 0.00 | 0.00 | 97 | 1026.5 |
| 20260906012004 | 49 | 161 | 0.0 | 1.0 | 0.00 | 0.00 | 0.00 | 97 | 1026.5 |
| 20260906011003 | 49 | 160 | 1.0 | 3.0 | 0.00 | 0.00 | 0.00 | 97 | 1026.5 |
| 20260906010003 | 49 | 160 | 0.0 | 3.0 | 0.00 | 0.00 | 0.00 | 97 | 1026.5 |
| 20260906005003 | 50 | 175 | 2.0 | 4.0 | 0.00 | 0.00 | 0.00 | 97 | 1026.5 |
| 20260906004004 | 50 | 196 | 1.0 | 3.0 | 0.00 | 0.00 | 0.00 | 96 | 1026.6 |
| 20260906003003 | 50 | 196 | 0.0 | 3.0 | 0.00 | 0.00 | 0.00 | 97 | 1026.6 |
| 20260906002004 | 50 | 0 | 0.0 | 0.0 | 0.00 | 0.00 | 0.00 | 96 | 1026.5 |
| 20260906001003 | 50 | 0 | 0.0 | 0.0 | 0.00 | 0.00 | 0.00 | 96 | 1026.5 |
| 20260906000005 | 50 | 0 | 0.0 | 0.0 | 0.00 | 0.00 | 0.00 | 96 | 1026.5 |
| 20260905234004 | 50 | 0 | 0.0 | 0.0 | 0.00 | 0.00 | 0.00 | 96 | 1026.4 |
| 20260905233004 | 51 | 195 | 0.0 | 1.0 | 0.00 | 0.00 | 0.00 | 96 | 1026.4 |
| 20260905231003 | 51 | 196 | 1.0 | 2.0 | 0.00 | 0.00 | 0.00 | 96 | 1026.1 |
| 20260905230004 | 51 | 196 | 1.0 | 3.0 | 0.00 | 0.00 | 0.00 | 95 | 1026.1 |
| 20260905225004 | 51 | 196 | 1.0 | 2.0 | 0.00 | 0.00 | 0.00 | 95 | 1026.2 |
| 20260905223004 | 52 | 196 | 1.0 | 3.0 | 0.00 | 0.00 | 0.00 | 95 | 1026.0 |
| 20260905222004 | 52 | 195 | 0.0 | 1.0 | 0.00 | 0.00 | 0.00 | 95 | 1026.2 |
| 20260905220009 | 53 | 196 | 1.0 | 2.0 | 0.00 | 0.00 | 0.00 | 94 | 1026.0 |
| 20260905215005 | 53 | 195 | 1.0 | 2.0 | 0.00 | 0.00 | 0.00 | 94 | 1025.9 |
| 20260905214004 | 53 | 196 | 0.0 | 2.0 | 0.00 | 0.00 | 0.00 | 93 | 1025.9 |
| 20260905213004 | 54 | 196 | 1.0 | 2.0 | 0.00 | 0.00 | 0.00 | 94 | 1025.9 |
| 20260905211004 | 53 | 0 | 0.0 | 0.0 | 0.00 | 0.00 | 0.00 | 93 | 1025.8 |
| 20260905210006 | 53 | 0 | 0.0 | 0.0 | 0.00 | 0.00 | 0.00 | 92 | 1025.8 |
| 20260905205004 | 54 | 195 | 1.0 | 3.0 | 0.00 | 0.00 | 0.00 | 92 | 1025.6 |
| 20260905204004 | 54 | 194 | 1.0 | 3.0 | 0.00 | 0.00 | 0.00 | 92 | 1025.5 |
| 20260905203004 | 54 | 0 | 0.0 | 0.0 | 0.00 | 0.00 | 0.00 | 91 | 1025.5 |
| 20260905202004 | 55 | 0 | 0.0 | 0.0 | 0.00 | 0.00 | 0.00 | 89 | 1025.5 |
| 20260905201004 | 56 | 241 | 0.0 | 2.0 | 0.00 | 0.00 | 0.00 | 89 | 1025.5 |
| 20260905200005 | 56 | 0 | 0.0 | 0.0 | 0.00 | 0.00 | 0.00 | 88 | 1025.5 |
| 20260905195005 | 57 | 0 | 0.0 | 0.0 | 0.00 | 0.00 | 0.00 | 88 | 1025.4 |
| 20260905194004 | 57 | 239 | 1.0 | 1.0 | 0.00 | 0.00 | 0.00 | 87 | 1025.4 |
| 20260905193004 | 58 | 239 | 0.0 | 2.0 | 0.00 | 0.00 | 0.00 | 85 | 1025.4 |
| 20260905192005 | 58 | 233 | 2.0 | 4.0 | 0.00 | 0.00 | 0.00 | 84 | 1025.3 |
| 20260905191004 | 60 | 219 | 1.0 | 2.0 | 0.00 | 0.00 | 0.00 | 81 | 1025.0 |
| 20260905190005 | 61 | 228 | 2.0 | 3.0 | 0.00 | 0.00 | 0.00 | 80 | 1025.0 |
| 20260905185005 | 61 | 244 | 2.0 | 4.0 | 0.00 | 0.00 | 0.00 | 78 | 1025.0 |
| 20260905184004 | 62 | 244 | 2.0 | 4.0 | 0.00 | 0.00 | 0.00 | 78 | 1024.9 |
| 20260905181959 | 63 | 244 | 2.0 | 3.0 | 0.00 | 0.00 | 0.00 | 76 | 1024.9 |
| 20260905181000 | 63 | 256 | 3.0 | 6.0 | 0.00 | 0.00 | 0.00 | 75 | 1024.9 |
| 20260905175959 | 64 | 258 | 4.0 | 8.0 | 0.00 | 0.00 | 0.00 | 74 | 1024.9 |
| 20260905174959 | 64 | 254 | 4.0 | 9.0 | 0.00 | 0.00 | 0.00 | 74 | 1024.8 |
| 20260905173959 | 65 | 261 | 5.0 | 12.0 | 0.00 | 0.00 | 0.00 | 73 | 1024.8 |
| 20260905172959 | 65 | 267 | 6.0 | 11.0 | 0.00 | 0.00 | 0.00 | 72 | 1024.8 |
| 20260905170959 | 66 | 258 | 7.0 | 12.0 | 0.00 | 0.00 | 0.00 | 70 | 1024.4 |
| 20260905165959 | 67 | 251 | 6.0 | 11.0 | 0.00 | 0.00 | 0.00 | 69 | 1024.4 |
| 20260905164958 | 67 | 255 | 7.0 | 15.0 | 0.00 | 0.00 | 0.00 | 69 | 1024.4 |
| 20260905163958 | 67 | 247 | 6.0 | 11.0 | 0.00 | 0.00 | 0.00 | 69 | 1024.3 |
| 20260905161959 | 67 | 248 | 6.0 | 11.0 | 0.00 | 0.00 | 0.00 | 69 | 1024.0 |
| 20260905161000 | 68 | 253 | 7.0 | 13.0 | 0.00 | 0.00 | 0.00 | 68 | 1023.9 |
| 20260905155959 | 67 | 253 | 7.0 | 13.0 | 0.00 | 0.00 | 0.00 | 68 | 1023.9 |
| 20260905154959 | 67 | 254 | 8.0 | 13.0 | 0.00 | 0.00 | 0.00 | 68 | 1023.8 |
| 20260905153959 | 67 | 258 | 9.0 | 18.0 | 0.00 | 0.00 | 0.00 | 69 | 1023.6 |
| 20260905153001 | 67 | 252 | 8.0 | 15.0 | 0.00 | 0.00 | 0.00 | 69 | 1023.6 |
| 20260905151959 | 69 | 217 | 8.0 | 15.0 | 0.00 | 0.00 | 0.00 | 66 | 1023.4 |
| 20260905145959 | 68 | 229 | 7.0 | 12.0 | 0.00 | 0.00 | 0.00 | 69 | 1023.4 |
| 20260905144959 | 69 | 240 | 6.0 | 13.0 | 0.00 | 0.00 | 0.00 | 67 | 1023.2 |
| 20260905144000 | 68 | 233 | 6.0 | 12.0 | 0.00 | 0.00 | 0.00 | 68 | 1023.1 |
| 20260905142959 | 68 | 228 | 8.0 | 16.0 | 0.00 | 0.00 | 0.00 | 67 | 1023.1 |
| 20260905141959 | 68 | 227 | 7.0 | 15.0 | 0.00 | 0.01 | 0.00 | 67 | 1023.0 |
| 20260905140959 | 69 | 253 | 7.0 | 15.0 | 0.00 | 0.01 | 0.00 | 64 | 1022.9 |
| 20260905140000 | 69 | 250 | 9.0 | 20.0 | 0.00 | 0.01 | 0.00 | 63 | 1022.9 |
| 20260905134959 | 69 | 248 | 7.0 | 15.0 | 0.00 | 0.01 | 0.00 | 65 | 1022.8 |
| 20260905134000 | 68 | 247 | 8.0 | 18.0 | 0.00 | 0.01 | 0.00 | 65 | 1022.5 |
| 20260905131959 | 69 | 258 | 11.0 | 19.0 | 0.00 | 0.02 | 0.00 | 65 | 1022.4 |
| 20260905130959 | 71 | 247 | 8.0 | 15.0 | 0.00 | 0.03 | 0.00 | 64 | 1022.3 |
| 20260905125959 | 70 | 226 | 8.0 | 16.0 | 0.00 | 0.03 | 0.00 | 65 | 1022.3 |
| 20260905124959 | 69 | 239 | 10.0 | 18.0 | 0.00 | 0.03 | 0.00 | 65 | 1022.3 |
| 20260905122000 | 70 | 216 | 9.0 | 19.0 | 0.00 | 0.04 | 0.00 | 65 | 1022.1 |
| 20260905121000 | 70 | 224 | 9.0 | 18.0 | 0.00 | 0.04 | 0.00 | 65 | 1022.0 |
| 20260905115000 | 69 | 232 | 9.0 | 20.0 | 0.00 | 0.04 | 0.00 | 69 | 1021.8 |
| 20260905114001 | 69 | 223 | 9.0 | 18.0 | 0.00 | 0.05 | 0.00 | 68 | 1021.8 |
| 20260905113000 | 69 | 228 | 9.0 | 20.0 | 0.00 | 0.05 | 0.00 | 68 | 1021.8 |
| 20260905112000 | 68 | 229 | 10.0 | 18.0 | 0.00 | 0.05 | 0.00 | 67 | 1021.7 |
| 20260905111000 | 68 | 235 | 9.0 | 19.0 | 0.00 | 0.06 | 0.00 | 68 | 1021.7 |
| 20260905110000 | 68 | 231 | 9.0 | 16.0 | 0.00 | 0.06 | 0.00 | 69 | 1021.7 |
| 20260905105000 | 68 | 229 | 9.0 | 19.0 | 0.00 | 0.06 | 0.00 | 70 | 1021.5 |
| 20260905103000 | 67 | 221 | 7.0 | 17.0 | 0.00 | 0.06 | 0.00 | 76 | 1021.3 |
| 20260905102000 | 67 | 229 | 7.0 | 18.0 | 0.00 | 0.06 | 0.00 | 76 | 1021.2 |
| 20260905101000 | 66 | 220 | 7.0 | 15.0 | 0.00 | 0.06 | 0.00 | 79 | 1021.3 |
| 20260905095000 | 66 | 214 | 8.0 | 17.0 | 0.00 | 0.06 | 0.00 | 81 | 1021.1 |
| 20260905093000 | 65 | 234 | 8.0 | 17.0 | 0.00 | 0.06 | 0.00 | 81 | 1020.9 |
| 20260905092000 | 65 | 221 | 8.0 | 16.0 | 0.00 | 0.06 | 0.00 | 82 | 1020.7 |
| 20260905091000 | 66 | 209 | 7.0 | 17.0 | 0.00 | 0.06 | 0.00 | 83 | 1020.5 |
| 20260905090000 | 65 | 197 | 6.0 | 14.0 | 0.00 | 0.06 | 0.00 | 85 | 1020.5 |
| 20260905085001 | 64 | 194 | 7.0 | 16.0 | 0.00 | 0.06 | 0.00 | 85 | 1020.4 |
| 20260905084000 | 64 | 190 | 7.0 | 13.0 | 0.00 | 0.06 | 0.00 | 86 | 1020.5 |
| 20260905082001 | 63 | 196 | 6.0 | 12.0 | 0.00 | 0.06 | 0.00 | 87 | 1020.2 |
| 20260905081000 | 63 | 201 | 6.0 | 12.0 | 0.00 | 0.06 | 0.00 | 88 | 1020.1 |
| 20260905080000 | 62 | 194 | 6.0 | 13.0 | 0.00 | 0.06 | 0.00 | 89 | 1020.1 |
| 20260905075001 | 62 | 199 | 6.0 | 13.0 | 0.00 | 0.06 | 0.00 | 89 | 1020.0 |
| 20260905073001 | 61 | 190 | 6.0 | 12.0 | 0.00 | 0.06 | 0.00 | 91 | 1019.7 |
| 20260905071000 | 60 | 188 | 5.0 | 14.0 | 0.00 | 0.06 | 0.00 | 92 | 1019.6 |
| 20260905070000 | 59 | 188 | 5.0 | 7.0 | 0.00 | 0.06 | 0.00 | 92 | 1019.6 |
| 20260905065001 | 59 | 189 | 5.0 | 9.0 | 0.00 | 0.06 | 0.00 | 92 | 1019.4 |
| 20260905063000 | 58 | 189 | 5.0 | 9.0 | 0.00 | 0.06 | 0.00 | 94 | 1019.2 |